weather.gov     
National Weather Service

Regional Weather Roundup
NWS Homepage
This page is being discontinued on March 12, 2014.
The same data is available at this site. Please update your bookmarks.
Thank you, and we apologize for the inconvenience.
Please send an email to SR-SRH.Webmaster@noaa.gov with any concerns.


Current Version
Previous Version:    01  02  03  04  05  06  07  08  09  10  11  12  13  14  15  16  17  18  19  20  21  22  23  24  25  26  27  28  29  30  
   31  32  33  34  35  36  37  38  39  40  41  42  43  44  45  46  47  48  49  50  51  52  53  54  
[Printable]
246
ASUS46 KSGX 240410
RWRSGX

SAN DIEGO HOURLY WEATHER ROUNDUP
NATIONAL WEATHER SERVICE SAN DIEGO CA
900 PM PDT WED JUL 23 2014

NOTE: "FAIR" INDICATES FEW OR NO CLOUDS BELOW 12,000 FEET WITH NO
SIGNIFICANT WEATHER AND/OR OBSTRUCTIONS TO VISIBILITY.

CAZ042-043-060-061-PZZ750-775-240500-

GREATER SAN DIEGO AREA

CITY           SKY/WX    TMP DP  RH WIND       PRES   REMARKS
LINDBERGH FLD  PTCLDY    73  63  70 NW5       29.91S
POINT LOMA       N/A     69  65  87 NW14        N/A
NATIONAL CITY    N/A     74  67  79 CALM      29.91R
CHULA VISTA      N/A     74  67  79 CALM      29.83S
IMPERIAL BEACH PTCLDY    70  65  84 W6        29.91S
BROWN FIELD    CLEAR     69  63  81 W6        29.91R
MIRAMAR MCAS   PTCLDY    74  55  51 NW6       29.91R
MONTGOMERY FLD CLEAR     75  57  53 NW6       29.91R

$$

NORTH SAN DIEGO COUNTY

CITY           SKY/WX    TMP DP  RH WIND       PRES   REMARKS
CAMP PENDLETON PTCLDY    70  61  73 CALM      29.89R
OCEANSIDE AP   CLEAR     71  63  75 W5        29.89R
OCEANSIDE HBR    N/A     70  67  89 SW2       29.92R
VISTA            N/A     73  62  68 CALM      29.88S
CARLSBAD       CLEAR     73  60  63 CALM      29.89S
DEL MAR          N/A     69  64  84 CALM      29.92S
FALLBROOK        N/A     72  61  69 CALM      29.89R
ESCONDIDO        N/A     77  57  49 W3        29.91S
POWAY            N/A     76  57  51 CALM      29.90S
R. PENASQUITOS   N/A     73  61  66 CALM      29.90S

$$

EAST SAN DIEGO COUNTY

CITY           SKY/WX    TMP DP  RH WIND       PRES   REMARKS
RAMONA         CLEAR     74  53  48 NW3       29.94S
SANTEE LAKES     N/A     77  58  52 CALM      29.89S
GILLESPIE FLD  FAIR      77  55  47 W8        29.92R
LA MESA          N/A     76  61  58 CALM      29.84R
JAMUL            N/A     76  62  61 CALM      29.88S
DESCANSO N       N/A     73  47  39 NW1       29.78R
MT. LAGUNA OBS   N/A     76  22  13 CALM      29.80S
CAMPO            N/A     77  54  44 SW3       29.97R

$$

ORANGE COUNTY AND THE LOS ANGELES BASIN

CITY           SKY/WX    TMP DP  RH WIND       PRES   REMARKS
JOHN WAYNE AP  PTCLDY    78  59  51 W5        29.88S
LAGUNA BEACH     N/A     73  63  70 CALM      29.84S
LAKE FOREST FR   N/A     77  57  49 CALM      29.78R
SANTA ANA        N/A     79  62  55 CALM      29.83S
HUNTINGTON BCH   N/A     70  66  88 CALM      29.90S
LOS ALAMITOS   PTCLDY    74  60  60 W9        29.88S
FULLERTON      CLEAR     77  58  51 W5        29.88R
LONG BEACH     CLEAR     75  60  59 NW8       29.88S
L.A. AP        CLEAR     71  60  68 W12       29.88R
L.A. DOWNTOWN  CLEAR     72  60  66 CALM      29.87S

$$

THE INLAND EMPIRE

CITY           SKY/WX    TMP DP  RH WIND       PRES   REMARKS
CORONA         CLEAR     79  55  43 MISG      29.90R
CHINO          CLEAR     76  55  48 W7        29.91R
ONTARIO        PTCLDY    83  51  33 SW6       29.91R
RIVERSIDE AP   CLEAR     82  45  27 W5        29.90S
RIV CYN CREST    N/A     83  56  40 CALM      29.88R
MORENO VALLEY    N/A     82  50  33 CALM      28.04S
MARCH ARB      CLEAR     79  43  28 W8        29.94S
HORSETHIEF CYN   N/A     80  45  28 SW6       29.90R
PERRIS           N/A     83  42  23 NW2         N/A
MENIFEE          N/A     85  47  25 NE5       29.96R
HEMET EAST       N/A     84  43  23 CALM      29.87R
FRENCH VALLEY  FAIR      81  55  41 CALM      29.94R
TEMECULA         N/A     79  58  47 S3        29.89R

$$

SAN BERNARDINO AND RIVERSIDE COUNTY MOUNTAINS

CITY           SKY/WX    TMP DP  RH WIND       PRES   REMARKS
BIG BEAR AP    CLEAR     64  23  20 CALM      30.33S
BIG BEAR SHEA    N/A     67  16  14 CALM      29.87R
ANGELUS OAKS     N/A     69  29  22 MISG      29.79R
PINE COVE        N/A     74  24  15 CALM      29.88R

$$

SOUTHERN DESERT INCLUDING THE COACHELLA VALLEY

CITY           SKY/WX    TMP DP  RH WIND       PRES   REMARKS
PALM SPRINGS   CLEAR    104  41  11 NW16      29.76R HX  99
THOUSAND PALMS   N/A     99  46  16 NW10      29.71R HX  95
PALM DESERT      N/A    101  50  18 CALM      28.61S HX  97
THERMAL        CLEAR    103  40  11 NW9       29.68S HX  98
BLYTHE         CLEAR    108  39   9 SW9       29.72R HX 102
IMPERIAL AP    CLEAR     99  49  18 W7        29.69R HX  96
EL CENTRO NAS  PTCLDY   101  48  16 W12       29.69R HX  97
YUMA AZ        MOCLDY   105  47  14 W7        29.71S HX 101
MEXICALI       CLEAR    102  45  14 S6        29.71R HX  98

$$

UPPER DESERT

CITY           SKY/WX    TMP DP  RH WIND       PRES   REMARKS
VICTORVILLE AP CLEAR     88  36  15 W8        30.01R
HESPERIA         N/A     85  38  19 CALM      29.96R
GRAY BUTTE AP  NOT AVBL
PALMDALE       CLEAR     84  43  23 NW13      30.00R
LANCASTER      CLEAR     79  50  36 W21G26    29.99R
EDWARDS AFB    PTCLDY    84  43  23 W13       29.95R
DAGGETT        CLEAR     96  33  11 W16       29.89R
29 PALMS N     PTCLDY    97  28   8 SW15      29.95R
NEEDLES        CLEAR    105  25   6 W12       29.76S HX  97

$$

REGIONAL REPORTS

CITY           SKY/WX    TMP DP  RH WIND       PRES   REMARKS
SANTA BARBARA  CLEAR     73  63  70 S8        29.85R
SANDBERG       CLEAR     71  47  42 N14       30.16R
MT. WILSON       N/A     73  23  15 SW6         N/A
LAS VEGAS NV   PTCLDY   102  23   6 SW14      29.82R HX  95
PHOENIX AZ     MOCLDY   107  56  18 E14       29.81R HX 106
TIJUANA        CLEAR     70  61  73 W6        29.93S
ENSENADA NW      N/A     70  32  24 E1        29.87S

$$

OFFSHORE ISLANDS

CITY           SKY/WX    TMP DP  RH WIND       PRES   REMARKS
CATALINA ARPT  CLEAR     79  45  29 W13       29.96R
SAN NICOLAS IS CLEAR    N/A N/A N/A W33G43    29.91F

$$

MARINE AND OFFSHORE BUOY REPORTS

STATION/POSITION SKY/WX   TEMP    WIND        PRES    SWELL
                          AIR SEA DIR/SP/G            HT/PER/DIR
                          (F)     (DEG/KT/KT) (MB)    (FT/S/D)
TANNER BANKS               66 65  310/ 17/ 23 1013.9R   2/320/10
S CLEMENTE BASIN           69 70  300/ 19/ 23 1012.3R   2/300/11
SAN NICOLAS IS.               67                N/A     2/230/18
SO. S. ROSA ISLA           67 66  310/ 23/ 27 1013.1F   2/ 9
W. S. BARBARA CH           63 60  320/ 23/ 29 1012.9F   2/320/10
M. S. BARBARA CH           69 66  280/ 21/ 25 1010.8
S. MONICA BASIN            69 69  280/ 10/ 14 1011.2F   5/280/ 6
S PEDRO CHANNEL               69                N/A
DANA POINT                    70                N/A     2/180/18
CMP PENDLETON NS              66                N/A     2/210/18
TORREY PINES OTR              71                N/A     2/200/13
LA JOLLA 1                 71 68   10/  1/  2 1012.5
MISSION BAY BUOY              70                N/A     2/270/11
SAN DIEGO BAY                 69              1012.8R
POINT LOMA SOUTH              70                N/A     2/260/11

$$





U.S. Dept. of Commerce
NOAA National Weather Service
1325 East West Highway
Silver Spring, MD 20910
E-mail: w-nws.webmaster@noaa.gov
Page last modified: May 16, 2007
NATIONAL WEATHER SERVICE: for Safety, for Work, for Fun - FOR LIFE